Change the Weather History Date:

Monday, December 3, 2012

  Actual Average (KBOI) Record (KBOI)
Temperature  
Mean Temperature 42 °F 33 °F  
Max Temperature 51 °F 40 °F 61 °F (2007)
Min Temperature 32 °F 26 °F 14 °F (1891)
Degree Days  
Heating Degree Days 24 32  
Month to date heating degree days 95  
Since 1 July heating degree days 1349  
Cooling Degree Days 0 0  
Month to date cooling degree days 0  
Year to date cooling degree days 942  
Moisture  
Dew Point 26 °F    
Average Humidity 55    
Maximum Humidity 70    
Minimum Humidity 38    
Precipitation  
Precipitation 0.00 in 0.05 in 0.69 in (1910)
Month to date precipitation 0.15  
Year to date precipitation 10.33  
Snow  
Snow 0.00 in 0.20 in 2.80 in (1948)
Month to date snowfall 0.5  
Since 1 July snowfall 3.2  
Snow Depth -    
Sea Level Pressure  
Sea Level Pressure 30.15 in    
Wind  
Wind Speed 7 mph (SE)    
Max Wind Speed 15 mph    
Max Gust Speed -    
Visibility 10 miles    
Events      
T = Trace of Precipitation, MM = Missing Value Source: NWS Daily Summary

Daily Weather History Graph

Daily Weather History Graph

Search for Another Location

Airport or City:

Trip Planner

Search our weather history database for the weather conditions in past years. The results will help you decide how hot, cold, wet, or windy it might be!

Date:

Astronomy

Dec. 03, 2012 Rise Set
Actual Time 8:02 AM MST 5:10 PM MST
Civil Twilight 7:30 AM MST 5:42 PM MST
Nautical Twilight 6:54 AM MST 6:18 PM MST
Astronomical Twilight 6:20 AM MST 6:53 PM MST
Moon 10:06 PM MST (12/3) 11:23 AM MST (12/3)
Length of Visible Light 10h 12m
Length of Day
9h 07m
Waning Gibbous, 77% of the Moon is Illuminated
Dec 3
Waning Gibbous
Dec 6
Last Quarter
Dec 13
New
Dec 19
First Quarter
Dec 28
Full

Hourly Weather History & Observations

Time (MST) Temp. Windchill Dew Point Humidity Pressure Visibility Wind Dir Wind Speed Gust Speed Precip Events Conditions
12:15 AM 39.2 °F 34.2 °F 24.8 °F 56% 30.06 in 10.0 mi South 6.9 mph - N/A   Mostly Cloudy
12:35 AM 37.4 °F 32.1 °F 24.8 °F 60% 30.07 in 10.0 mi SSW 6.9 mph - N/A   Partly Cloudy
12:55 AM 39.2 °F 34.2 °F 24.8 °F 56% 30.08 in 10.0 mi SW 6.9 mph - N/A   Clear
1:15 AM 37.4 °F 33.8 °F 24.8 °F 60% 30.08 in 10.0 mi ESE 4.6 mph - N/A   Clear
1:35 AM 35.6 °F - 24.8 °F 65% 30.08 in 10.0 mi Calm Calm - N/A   Clear
1:55 AM 37.4 °F - 24.8 °F 60% 30.08 in 10.0 mi Calm Calm - N/A   Clear
2:15 AM 33.8 °F 29.6 °F 23.0 °F 65% 30.07 in 10.0 mi East 4.6 mph - N/A   Clear
2:35 AM 33.8 °F 27.7 °F 23.0 °F 65% 30.07 in 10.0 mi ESE 6.9 mph - N/A   Clear
2:55 AM 32.0 °F 28.7 °F 23.0 °F 69% 30.08 in 10.0 mi East 3.5 mph - N/A   Clear
3:15 AM 32.0 °F 24.8 °F 23.0 °F 69% 30.10 in 10.0 mi East 8.1 mph - N/A   Partly Cloudy
3:35 AM 33.8 °F 29.6 °F 23.0 °F 65% 30.10 in 10.0 mi SE 4.6 mph - N/A   Partly Cloudy
3:55 AM 33.8 °F 25.8 °F 24.8 °F 70% 30.10 in 10.0 mi ESE 10.4 mph - N/A   Clear
4:15 AM 33.8 °F 29.6 °F 24.8 °F 70% 30.10 in 10.0 mi East 4.6 mph - N/A   Clear
4:35 AM 33.8 °F 28.6 °F 24.8 °F 70% 30.10 in 10.0 mi SE 5.8 mph - N/A   Clear
4:55 AM 33.8 °F 27.7 °F 24.8 °F 70% 30.10 in 10.0 mi SSE 6.9 mph - N/A   Clear
5:15 AM 33.8 °F 27.0 °F 23.0 °F 65% 30.09 in 10.0 mi SSE 8.1 mph - N/A   Clear
5:35 AM 35.6 °F 29.2 °F 23.0 °F 60% 30.10 in 10.0 mi SE 8.1 mph - N/A   Clear
5:55 AM 33.8 °F 27.7 °F 23.0 °F 65% 30.10 in 10.0 mi SSE 6.9 mph - N/A   Clear
6:15 AM 35.6 °F 30.7 °F 23.0 °F 60% 30.10 in 10.0 mi SSE 5.8 mph - N/A   Clear
6:35 AM 35.6 °F 29.2 °F 23.0 °F 60% 30.11 in 10.0 mi SE 8.1 mph - N/A   Clear
6:55 AM 33.8 °F 29.6 °F 23.0 °F 65% 30.12 in 10.0 mi East 4.6 mph - N/A   Clear
7:15 AM 33.8 °F 28.6 °F 21.2 °F 60% 30.12 in 10.0 mi SE 5.8 mph - N/A   Clear
7:35 AM 32.0 °F 25.6 °F 23.0 °F 69% 30.14 in 10.0 mi SE 6.9 mph - N/A   Clear
8:15 AM 33.8 °F 24.8 °F 23.0 °F 65% 30.16 in 10.0 mi SSE 12.7 mph - N/A   Clear
8:35 AM 35.6 °F 27.1 °F 23.0 °F 60% 30.16 in 10.0 mi SE 12.7 mph - N/A   Clear
8:55 AM 37.4 °F 29.3 °F 24.8 °F 60% 30.16 in 10.0 mi SE 12.7 mph - N/A   Clear
9:15 AM 39.2 °F 32.0 °F 24.8 °F 56% 30.17 in 10.0 mi SSE 11.5 mph - N/A   Partly Cloudy
9:35 AM 41.0 °F 35.8 °F 24.8 °F 53% 30.17 in 10.0 mi SE 8.1 mph - N/A   Mostly Cloudy
9:55 AM 41.0 °F 35.2 °F 24.8 °F 53% 30.17 in 10.0 mi SE 9.2 mph - N/A   Mostly Cloudy
10:15 AM 41.0 °F 33.9 °F 26.6 °F 57% 30.18 in 10.0 mi SE 12.7 mph - N/A   Overcast
10:35 AM 42.8 °F 36.6 °F 24.8 °F 49% 30.19 in 10.0 mi SSE 11.5 mph - N/A   Overcast
10:55 AM 42.8 °F 36.2 °F 26.6 °F 53% 30.20 in 10.0 mi SSE 12.7 mph - N/A   Overcast
11:15 AM 44.6 °F 40.2 °F 26.6 °F 49% 30.20 in 10.0 mi SSE 8.1 mph - N/A   Overcast
11:35 AM 46.4 °F 42.4 °F 26.6 °F 46% 30.21 in 10.0 mi SSE 8.1 mph - N/A   Mostly Cloudy
11:55 AM 46.4 °F 42.9 °F 28.4 °F 50% 30.20 in 10.0 mi SE 6.9 mph - N/A   Overcast
12:15 PM 48.2 °F - 28.4 °F 46% 30.19 in 10.0 mi SE 6.9 mph - N/A   Overcast
12:35 PM 51.8 °F - 28.4 °F 41% 30.19 in 10.0 mi SE 5.8 mph - N/A   Scattered Clouds
12:55 PM 51.8 °F - 28.4 °F 41% 30.19 in 10.0 mi SSE 8.1 mph - N/A   Mostly Cloudy
1:15 PM 51.8 °F - 28.4 °F 41% 30.19 in 10.0 mi SE 5.8 mph - N/A   Partly Cloudy
1:35 PM 51.8 °F - 28.4 °F 41% 30.18 in 10.0 mi SSE 5.8 mph - N/A   Clear
1:55 PM 51.8 °F - 28.4 °F 41% 30.19 in 10.0 mi South 6.9 mph - N/A   Clear
2:15 PM 51.8 °F - 28.4 °F 41% 30.18 in 10.0 mi SSW 8.1 mph - N/A   Clear
2:35 PM 51.8 °F - 28.4 °F 41% 30.18 in 10.0 mi South 6.9 mph - N/A   Clear
2:55 PM 51.8 °F - 28.4 °F 41% 30.17 in 10.0 mi South 4.6 mph - N/A   Clear
3:15 PM 51.8 °F - 26.6 °F 38% 30.17 in 10.0 mi SSE 4.6 mph - N/A   Clear
3:35 PM 51.8 °F - 26.6 °F 38% 30.17 in 10.0 mi SE 5.8 mph - N/A   Clear
3:55 PM 51.8 °F - 26.6 °F 38% 30.17 in 10.0 mi ESE 4.6 mph - N/A   Clear
4:15 PM 50.0 °F - 28.4 °F 43% 30.17 in 10.0 mi East 6.9 mph - N/A   Clear
4:35 PM 48.2 °F - 28.4 °F 46% 30.17 in 10.0 mi ESE 6.9 mph - N/A   Clear
4:55 PM 46.4 °F 43.5 °F 26.6 °F 46% 30.17 in 10.0 mi ESE 5.8 mph - N/A   Clear
5:15 PM 44.6 °F 40.2 °F 26.6 °F 49% 30.17 in 10.0 mi ESE 8.1 mph - N/A   Clear
5:35 PM 44.6 °F 40.2 °F 26.6 °F 49% 30.18 in 10.0 mi SE 8.1 mph - N/A   Clear
5:55 PM 42.8 °F 38.0 °F 26.6 °F 53% 30.17 in 10.0 mi SE 8.1 mph - N/A   Clear
6:15 PM 44.6 °F 39.7 °F 26.6 °F 49% 30.17 in 10.0 mi SE 9.2 mph - N/A   Clear
6:35 PM 41.0 °F 35.8 °F 26.6 °F 57% 30.18 in 10.0 mi SSE 8.1 mph - N/A   Clear
6:55 PM 39.2 °F 33.6 °F 26.6 °F 61% 30.18 in 10.0 mi SSE 8.1 mph - N/A   Clear
7:15 PM 39.2 °F 33.6 °F 24.8 °F 56% 30.18 in 10.0 mi SSE 8.1 mph - N/A   Clear
7:35 PM 39.2 °F 32.5 °F 26.6 °F 61% 30.18 in 10.0 mi SSE 10.4 mph - N/A   Clear
7:55 PM 39.2 °F 32.5 °F 26.6 °F 61% 30.17 in 10.0 mi SE 10.4 mph - N/A   Clear
8:15 PM 39.2 °F 31.6 °F 26.6 °F 61% 30.17 in 10.0 mi SE 12.7 mph - N/A   Clear
8:35 PM 37.4 °F 29.8 °F 24.8 °F 60% 30.17 in 10.0 mi SE 11.5 mph - N/A   Clear
8:55 PM 37.4 °F 29.3 °F 24.8 °F 60% 30.16 in 10.0 mi SE 12.7 mph - N/A   Clear
9:15 PM 37.4 °F 29.8 °F 24.8 °F 60% 30.16 in 10.0 mi SSE 11.5 mph - N/A   Clear
9:35 PM 39.2 °F 32.5 °F 26.6 °F 61% 30.15 in 10.0 mi SSE 10.4 mph - N/A   Clear
9:55 PM 42.8 °F 36.6 °F 26.6 °F 53% 30.16 in 10.0 mi SSE 11.5 mph - N/A   Clear
10:15 PM 42.8 °F 35.4 °F 26.6 °F 53% 30.16 in 10.0 mi South 15.0 mph - N/A   Clear
10:35 PM 42.8 °F 36.2 °F 26.6 °F 53% 30.15 in 10.0 mi SSE 12.7 mph - N/A   Clear
10:55 PM 42.8 °F 36.2 °F 26.6 °F 53% 30.15 in 10.0 mi SSE 12.7 mph - N/A   Clear
11:15 PM 41.0 °F 34.3 °F 26.6 °F 57% 30.14 in 10.0 mi SSE 11.5 mph - N/A   Clear
11:35 PM 42.8 °F 36.6 °F 26.6 °F 53% 30.13 in 10.0 mi SSE 11.5 mph - N/A   Partly Cloudy
11:55 PM 41.0 °F 35.2 °F 26.6 °F 57% 30.12 in 10.0 mi SSE 9.2 mph - N/A   Partly Cloudy